Content
SEND FEEDBACK

Daily
Averages
Monthly
Summary
United States of America

AGNEW, NEBRASKA


Home > North America > United States > Nebraska
Elevation: 1260 feet     Latitude: 41 01N     Longitude: 096 48W

WEATHER
 
SELECT A DAY
Number of Records: 202,950;   Date Range: 1/1/95 - 8/12/14
 
SHARE

PRINT THIS DATA

[ ← Previous Day ]
WEATHER ALMANAC - FEBRUARY 6, 2013
[ Next Day → ]
[ °C ]   °F
Weather ElementAverageHighLow
Temperature42.3 °F57.9 °F (3:54 pm)30 °F (1:54 am)
Dewpoint33.1 °F39.9 °F (5:54 pm)26.1 °F (1:54 am)
Humidity71.4 %86 % (6:54 am)49 % (3:54 pm)
Barometer29.94 in30.07 in (1:54 am)29.84 in (3:54 pm)
Wind Speed8.6 mph18.4 mph (10:54 am)
Wind Gust23 mph (11:54 am)
Weather ElementAverage
Visibility9.2 mi
Wind DirectionSSE (152.6 °)

Weather ElementTotal
Precipitation---
Heating Degree Days21.1 (Base 65)
Averaged from 23 records on February 6, 2013
WEATHER CONDITIONS BREAKOUT
WIND DIRECTION BREAKOUT
WEATHER BY HOUR - FEBRUARY 6, 2013
[ °C ]   °F
Local TimeTemperatureDewpointHumidityBarometerVisibilityWind DirectionWind SpeedGust SpeedPrecipitationEventsConditions
1:54 AM30.0 °F26.1 °F85 %30.07 in10.0 miCalmClear
2:54 AM34.0 °F27.0 °F75 %30.04 in10.0 miSSE (160°)6.9 mphScattered Clouds
3:54 AM36.0 °F28.9 °F76 %30.03 in10.0 miCalmPartly Cloudy
4:54 AM30.9 °F27.0 °F85 %30.03 in10.0 miSouth (180°)8.1 mphScattered Clouds
5:54 AM32.0 °F26.6 °F80 %29.99 in10.0 miSSE (150°)6.9 mphClear
6:54 AM30.2 °F26.6 °F86 %29.98 in10.0 miSSE (160°)8.1 mphClear
7:54 AM35.1 °F28.0 °F76 %30.01 in10.0 miSouth (170°)10.4 mphClear
8:54 AM39.0 °F28.9 °F67 %30.00 in10.0 miSouth (180°)13.8 mph21.9 mphClear
9:54 AM42.1 °F28.9 °F60 %29.99 in10.0 miSouth (180°)17.3 mphScattered Clouds
10:54 AM44.1 °F30.9 °F60 %29.98 in10.0 miSouth (190°)18.4 mphClear
11:54 AM48.0 °F33.1 °F56 %29.96 in10.0 miSouth (190°)15.0 mph23.0 mphClear
12:54 PM51.1 °F36.0 °F56 %29.93 in10.0 miSSW (200°)17.3 mph21.9 mphClear
1:54 PM55.9 °F37.9 °F51 %29.88 in10.0 miSouth (190°)15.0 mphClear
2:54 PM55.9 °F37.9 °F51 %29.85 in10.0 miSouth (190°)9.2 mphMostly Cloudy
3:54 PM57.9 °F39.0 °F49 %29.84 in10.0 miSSW (200°)12.7 mphClear
4:54 PM53.1 °F39.0 °F59 %29.84 in9.0 miSouth (180°)9.2 mphPartly Cloudy
5:54 PM52.0 °F39.9 °F63 %29.86 in9.0 miWest (280°)5.8 mphMostly Cloudy
6:54 PM41.0 °F36.0 °F82 %29.88 in8.0 miNorth (10°)5.8 mphPartly Cloudy
7:54 PM41.0 °F36.0 °F82 %29.89 in7.0 miNorth (350°)5.8 mphMostly Cloudy
8:54 PM41.0 °F37.0 °F86 %29.89 in7.0 miCalmMostly Cloudy
9:54 PM41.0 °F37.0 °F86 %29.89 in7.0 miNorth (350°)5.8 mphOvercast
10:54 PM42.1 °F37.9 °F85 %29.90 in7.0 miVariable5.8 mphMostly Cloudy
11:54 PM39.9 °F36.0 °F86 %29.91 in7.0 miCalmMostly Cloudy
Hourly data recorded from KLNK, located miles away from Agnew, Nebraska







STORIES FROM OUR PARTNERS